Location: ??????????
(48.5701°N, 37.7703°E)
Time: 20:01:03
(UTC+00:00)

Cosmos 2278 - Pass Details

Date: 14 July 2020
Orbit: 838 x 854 km, 71.1° (Epoch: 11 August)

Event Time Altitude Azimuth Distance (km) Brightness Sun altitude
Rises 00:17:56 0° 329° (NNW) 3,434 7.2 -10.9°
Reaches altitude 10° 00:20:26 10° 325° (NW) 2,495 6.4 -10.7°
Maximum altitude 00:26:01 57° 249° (WSW) 1,001 3.8 -10.1°
Drops below altitude 10° 00:31:35 10° 172° (S) 2,477 5.8 -9.5°
Sets 00:34:03 0° 168° (SSE) 3,407 6.5 -9.2°
